This demonstration page uses our WeatherBlox Daily Observations layout. Learn more.

Left ArrowRight Arrow

39.08367, -84.50855

Hourly Observations for March 30, 2016

Temp ( °F °C ) Dew Point ( °F °C ) Humidity (%) Winds ( mph kmh ) Pressure ( in mb ) Visibility ( mi km ) Precip ( " mm )
12:53 am 00:53 Clear 37 2.8 35 1.7 93 93 N N/A 30.22 1024 10 16.0934 N/A
1:53 am 01:53 Clear 36 2.2 34 1.1 93 93 N N/A 30.22 1023 10 16.0934 N/A
2:53 am 02:53 Clear 36 2.2 33 0.6 89 89 N N/A 30.19 1023 10 16.0934 N/A
3:53 am 03:53 Clear 35 1.7 33 0.6 93 93 N N/A 30.19 1022 10 16.0934 N/A
4:53 am 04:53 Clear 35 1.7 33 0.6 93 93 N N/A 30.18 1022 10 16.0934 N/A
5:53 am 05:53 Clear 34 1.1 33 0.6 97 97 N N/A 30.15 1021 10 16.0934 N/A
6:53 am 06:53 Clear 35 1.7 34 1.1 96 96 N N/A 30.14 1021 10 16.0934 N/A
7:53 am 07:53 Sunny 36 2.2 35 1.7 97 97 N N/A 30.15 1021 10 16.0934 N/A
8:53 am 08:53 Sunny 39 3.9 37 2.8 93 93 N N/A 30.14 1021 10 16.0934 N/A
9:53 am 09:53 Sunny 49 9.4 35 1.7 59 59 S 9 15 30.13 1020 10 16.0934 N/A
10:53 am 10:53 Sunny 55 12.8 37 2.8 51 51 S 9 15 30.11 1020 10 16.0934 N/A
11:53 am 11:53 Sunny 61 16.1 39 3.9 44 44 S 13 20 30.07 1018 10 16.0934 N/A
12:53 pm 12:53 Sunny 66 18.9 43 6.1 43 43 S 12 19 30.04 1017 10 16.0934 N/A
1:53 pm 13:53 Sunny 69 20.6 43 6.1 39 39 SW 13 20 30.01 1016 10 16.0934 N/A
2:53 pm 14:53 Sunny 69 20.6 43 6.1 39 39 SSW 17 28 29.98 1015 10 16.0934 N/A
3:53 pm 15:53 Mostly Sunny 71 21.7 47 8.3 42 42 S 15 24 29.93 1013 10 16.0934 N/A
4:53 pm 16:53 Partly Cloudy 71 21.7 43 6.1 36 36 S 17 28 29.88 1012 10 16.0934 N/A
5:53 pm 17:53 Sunny 70 21.1 45 7.2 41 41 S 20 31 29.87 1012 10 16.0934 N/A
6:53 pm 18:53 Sunny 69 20.6 48 8.9 47 47 S 13 20 29.87 1012 10 16.0934 N/A
7:53 pm 19:53 Partly Cloudy 68 20 46 7.8 45 45 S 14 22 29.86 1011 10 16.0934 N/A
8:53 pm 20:53 Mostly Clear 67 19.4 46 7.8 47 47 S 12 19 29.85 1011 10 16.0934 N/A
9:53 pm 21:53 Partly Cloudy 66 18.9 45 7.2 47 47 S 9 15 29.84 1010 10 16.0934 N/A
10:53 pm 22:53 Cloudy 66 18.9 43 6.1 43 43 S 8 13 29.81 1010 10 16.0934 N/A
11:11 pm 23:11 Cloudy with Nearby Thunderstorms 66 18.9 43 6.1 43 43 S 10 17 29.8 1009 10 16.0934 N/A
11:33 pm 23:33 Cloudy with Thunderstorms 63 17.2 47 8.3 56 56 S 14 22 29.8 1009 10 16.0934 N/A
11:48 pm 23:48 Cloudy with Nearby Thunderstorms 63 17 48 9 59 59 S 10 17 29.8 1009 10 16.0934 N/A
11:53 pm 23:53 Cloudy 62 16.7 47 8.3 58 58 SSW 8 13 29.8 1009 10 16.0934 N/A

Powered by AerisWeather